(12639) Tonkoopman = 1982 XA4 = 1105 T-2

Discovered at Palomar on 1973-09-29 by C. J. van Houten, I. van Houten-Groeneveld, and T. Gehrels.
(12639) Tonkoopman = 1105 T-2

Ton Koopman (b. 1944) is a Dutch harpsichord player and conductor, specializing in Baroque music. He founded the Amsterdam Baroque Orchestra in 1979, and the Amsterdam Baroque Choir in 1993. With these ensembles, he has given renowned performances of Bach's St. Matthew's Passion. [Ref: Minor Planet Circ. 89833]

Orbit

Orbit type: Main Belt

Note: WebGL enabled browser required.

epoch2023-09-13.0
epoch JD2460200.5
perihelion date2021-09-27.51291
perihelion JD2459485.01291
argument of perihelion (°)303.98360
ascending node (°)184.01174
inclination (°)2.68912
eccentricity0.1375077
perihelion distance (AU)2.2603564
Tisserand w.r.t. Jupiter3.4
ΔV w.r.t. Earth (km/sec)9.5
semimajor axis (AU)2.6207263
mean anomaly (°)166.21612
mean daily motion (°/day)0.23231180
aphelion distance (AU)2.981
period (years)4.24
P-vector [x]-0.61553362
P-vector [y]0.73767073
P-vector [z]0.27741712
Q-vector [x]-0.78810379
Q-vector [y]-0.57466780
Q-vector [z]-0.22056594
absolute magnitude14.8
phase slope0.15
uncertainty0
referenceMPEC 2024-A26
observations used1844
oppositions23
arc length (days)18149
first opposition used1973
last opposition used2023
residual rms (arc-secs)0.68
perturbers coarse indicatorM-v
perturbers precise indicator003Ek
first observation date used1973-09-19.0
last observation date used2023-05-29.0
computer nameMPCLINUX
JD of orbit computation2456877.806929
perihelion JD uncertainty (days)7.0153E-05
argument of perihelion uncertainty (°)7.2055E-05
ascending node uncertainty (°)7.0248E-05
inclination uncertainty (°)4.3418E-06
eccentricity uncertainty 3.1753E-08
perihelion distance uncertainty (AU)8.0922E-08
Minimum Orbit Intersection Distances (in AU)
for orbit epoch: 2460200.5, reference: E2024-A26
Mercury1.92802
Venus1.5457
Earth1.27529
Mars0.61984
Jupiter2.0739
Saturn6.64019
Uranus16.0872
Neptune27.0579

Observations

1894 total observations over interval: 1973 09 19.18611 – 2023 05 29.054959
These data are available for download (format description).

Date (UT) J2000 RA J2000 Dec Magn Location Ref
1973 09 19.18611 00 13 50.81 +01 46 04.0   675 – Palomar Mountain MPC 15001
1973 09 19.23785 00 13 48.21 +01 45 44.5   675 – Palomar Mountain MPC 15001
1973 09 20.22847 00 12 59.73 +01 39 35.3   675 – Palomar Mountain MPC 15001
1973 09 24.34688 00 09 35.31 +01 13 34.2   675 – Palomar Mountain MPC 15001
1973 09 24.41597 00 09 31.95 +01 13 08.7   675 – Palomar Mountain MPC 15001
1973 09 25.24375 00 08 50.67 +01 07 51.4   675 – Palomar Mountain MPC 15001
1973 09 25.30729 00 08 47.35 +01 07 28.6   675 – Palomar Mountain MPC 15001
1973 09 29.25330 00 05 30.33 +00 42 16.1 18.8   675 – Palomar Mountain MPC 15001
1973 09 29.31806 00 05 27.01 +00 41 50.7   675 – Palomar Mountain MPC 15001
1973 09 30.21007 00 04 42.81 +00 36 13.6   675 – Palomar Mountain MPC 15001
1973 09 30.27431 00 04 39.58 +00 35 48.8   675 – Palomar Mountain MPC 15001
1973 10 04.28958 00 01 23.21 +00 10 37.4   675 – Palomar Mountain MPC 15001
1973 10 04.35208 00 01 20.12 +00 10 13.9   675 – Palomar Mountain MPC 15001
1973 10 05.31684 00 00 34.03 +00 04 20.3   675 – Palomar Mountain MPC 15001
1973 10 05.37917 00 00 30.94 +00 03 57.5   675 – Palomar Mountain MPC 15001
1982 12 13.57374 03 31 03.25 +15 10 56.4 18.5   381 – Tokyo-Kiso MPC 8350
1982 12 14.53486 03 30 23.80 +15 08 47.4 18.5   381 – Tokyo-Kiso MPC 8350
1982 12 14.57861 03 30 21.93 +15 08 43.1 18.5   381 – Tokyo-Kiso MPC 8350
1994 08 12.23611 23 16 15.33 -02 52 41.6 18.7   809 – European Southern Observatory, La Silla MPC 24361
1994 08 12.24792 23 16 14.90 -02 52 44.2   809 – European Southern Observatory, La Silla MPC 24361
1994 08 12.25972 23 16 14.49 -02 52 46.6   809 – European Southern Observatory, La Silla MPC 24361
1994 08 13.27222 23 15 39.35 -02 56 51.5   809 – European Southern Observatory, La Silla MPC 24361
1994 08 13.28403 23 15 38.91 -02 56 55.0   809 – European Southern Observatory, La Silla MPC 24362
1994 08 13.29583 23 15 38.48 -02 56 56.9   809 – European Southern Observatory, La Silla MPC 24362
1994 09 05.26042 22 58 40.05 -04 57 23.0 18.5   809 – European Southern Observatory, La Silla MPC 24703
1994 09 05.27361 22 58 39.32 -04 57 28.0   809 – European Southern Observatory, La Silla MPC 24703
1994 09 05.28681 22 58 38.64 -04 57 32.1   809 – European Southern Observatory, La Silla MPC 24703
1994 09 06.21667 22 57 52.40 -05 03 04.1   809 – European Southern Observatory, La Silla MPC 24703
1994 09 06.22986 22 57 51.67 -05 03 09.8   809 – European Southern Observatory, La Silla MPC 24703
1994 09 06.24306 22 57 51.02 -05 03 13.0   809 – European Southern Observatory, La Silla MPC 24703
1997 05 03.27222 16 01 16.47 -17 19 08.2   809 – European Southern Observatory, La Silla MPC 30052
1997 05 03.28542 16 01 15.79 -17 19 04.3   809 – European Southern Observatory, La Silla MPC 30052
1997 05 03.29861 16 01 15.09 -17 19 02.9   809 – European Southern Observatory, La Silla MPC 30052
1997 05 04.25278 16 00 28.12 -17 15 41.4 18.5   809 – European Southern Observatory, La Silla MPC 30052
1997 05 04.26597 16 00 27.38 -17 15 39.4   809 – European Southern Observatory, La Silla MPC 30052
1997 05 04.27917 16 00 26.70 -17 15 35.8   809 – European Southern Observatory, La Silla MPC 30052
1997 06 07.11528 15 30 49.95 -15 23 33.9 18.5   809 – European Southern Observatory, La Silla MPC 30232
1997 06 07.12847 15 30 49.34 -15 23 31.6   809 – European Southern Observatory, La Silla MPC 30232
1997 06 07.14167 15 30 48.77 -15 23 30.3   809 – European Southern Observatory, La Silla MPC 30232
1997 06 08.09722 15 30 07.77 -15 21 12.8 18.5   809 – European Southern Observatory, La Silla MPC 30232
1997 06 08.11042 15 30 07.20 -15 21 10.3   809 – European Southern Observatory, La Silla MPC 30232
1997 06 08.12361 15 30 06.55 -15 21 07.7   809 – European Southern Observatory, La Silla MPC 30232
1998 07 26.25903 21 58 09.70 -09 27 46.9 18.5   809 – European Southern Observatory, La Silla MPS 2102
1998 07 26.27222 21 58 09.17 -09 27 49.3   809 – European Southern Observatory, La Silla MPS 2102
1998 07 26.28542 21 58 08.54 -09 27 53.8   809 – European Southern Observatory, La Silla MPS 2102
1998 07 27.23958 21 57 30.07 -09 31 25.8   809 – European Southern Observatory, La Silla MPS 2102
1998 07 27.25278 21 57 29.52 -09 31 29.3   809 – European Southern Observatory, La Silla MPS 2102
1998 07 27.26597 21 57 28.95 -09 31 31.4   809 – European Southern Observatory, La Silla MPS 2102
1998 08 17.25409 21 40 48.57 -11 06 26.2 18.7   704 – Lincoln Laboratory ETS, New Mexico MPS 2102
1998 08 17.27497 21 40 47.36 -11 06 30.6 18.6   704 – Lincoln Laboratory ETS, New Mexico MPS 2102
1998 08 17.29608 21 40 46.29 -11 06 37.2 18.5   704 – Lincoln Laboratory ETS, New Mexico MPS 2102
1998 08 17.31694 21 40 45.22 -11 06 44.3 18.5   704 – Lincoln Laboratory ETS, New Mexico MPS 2102
1998 08 17.33793 21 40 44.14 -11 06 50.0 18.6   704 – Lincoln Laboratory ETS, New Mexico MPS 2102
1999 10 21.32781 04 30 32.02 +18 44 31.9 18.7   704 – Lincoln Laboratory ETS, New Mexico MPS 6966
1999 10 21.34302 04 30 31.64 +18 44 28.3 19.1   704 – Lincoln Laboratory ETS, New Mexico MPS 6966
1999 10 21.35826 04 30 31.35 +18 44 26.8 19.7   704 – Lincoln Laboratory ETS, New Mexico MPS 6966
1999 10 21.37348 04 30 31.03 +18 44 24.6 19.3   704 – Lincoln Laboratory ETS, New Mexico MPS 6966
1999 10 21.38873 04 30 30.78 +18 44 21.9 19.1   704 – Lincoln Laboratory ETS, New Mexico MPS 6966
1999 10 30.40903 04 26 44.81 +18 21 02.4 18.3 R 703 – Catalina Sky Survey MPS 7520
1999 10 30.42107 04 26 44.32 +18 21 00.5 18.4 R 703 – Catalina Sky Survey MPS 7520
1999 10 30.43313 04 26 43.73 +18 20 58.9 18.8 R 703 – Catalina Sky Survey MPS 7520
1999 10 30.44512 04 26 43.51 +18 20 55.9 18.2 R 703 – Catalina Sky Survey MPS 7520
1999 11 04.33069 04 23 43.71 +18 06 21.5 18.0   704 – Lincoln Laboratory ETS, New Mexico MPS 7520
1999 11 04.34680 04 23 43.06 +18 06 18.5 18.2   704 – Lincoln Laboratory ETS, New Mexico MPS 7520
1999 11 04.36297 04 23 42.37 +18 06 14.5 18.6   704 – Lincoln Laboratory ETS, New Mexico MPS 7520
1999 11 04.37905 04 23 41.61 +18 06 12.8 18.6   704 – Lincoln Laboratory ETS, New Mexico MPS 7520
1999 11 04.39513 04 23 40.95 +18 06 09.3 18.0   704 – Lincoln Laboratory ETS, New Mexico MPS 7520
1999 11 10.31383 04 19 15.35 +17 47 01.0 18.2 R 699 – Lowell Observatory-LONEOS MPS 8289
1999 11 10.32910 04 19 14.58 +17 46 58.8   699 – Lowell Observatory-LONEOS MPS 8289
1999 11 10.34437 04 19 13.78 +17 46 55.8   699 – Lowell Observatory-LONEOS MPS 8289
1999 11 14.96412 04 15 17.01 +17 31 07.3 17.6 V 049 – Uppsala-Kvistaberg MPS 7520
1999 11 14.97521 04 15 16.41 +17 31 05.0 17.6 V 049 – Uppsala-Kvistaberg MPS 7520
1999 11 14.98589 04 15 15.82 +17 31 02.9 17.7 V 049 – Uppsala-Kvistaberg MPS 7520
1999 11 15.36193 04 14 55.41 +17 29 46.6 17.7   704 – Lincoln Laboratory ETS, New Mexico MPS 7520
1999 11 15.37625 04 14 54.61 +17 29 43.6 18.1   704 – Lincoln Laboratory ETS, New Mexico MPS 7520
1999 11 15.39055 04 14 53.79 +17 29 40.8 18.1   704 – Lincoln Laboratory ETS, New Mexico MPS 7520
1999 11 15.40499 04 14 53.00 +17 29 37.4 18.4   704 – Lincoln Laboratory ETS, New Mexico MPS 7520
1999 11 15.41930 04 14 52.18 +17 29 34.7 18.3   704 – Lincoln Laboratory ETS, New Mexico MPS 7520
1999 11 17.28035 04 13 10.68 +17 23 05.0 18.2   704 – Lincoln Laboratory ETS, New Mexico MPS 7520
1999 11 17.29566 04 13 09.78 +17 23 01.7 18.4   704 – Lincoln Laboratory ETS, New Mexico MPS 7520
1999 11 17.32648 04 13 08.01 +17 22 55.1 18.3   704 – Lincoln Laboratory ETS, New Mexico MPS 7520
1999 11 17.34185 04 13 07.07 +17 22 51.6 18.1   704 – Lincoln Laboratory ETS, New Mexico MPS 7520
1999 11 19.16327 04 11 25.34 +17 16 27.6 18.2 R 699 – Lowell Observatory-LONEOS MPS 8289
1999 11 19.19381 04 11 23.62 +17 16 22.0   699 – Lowell Observatory-LONEOS MPS 8289
